[[{"header":{"parameterUnit":"m.s-1","parameterCategory":1,"la1":30.2991,"la2":30.254,"lo1":-89.0895,"lo2":-89.0444,"dy":0.0017,"dx":0.0017,"nx":28,"ny":28,"refTime":"2025-11-18T03:00:00:Z","depth":0,"parameterNumber":2,"parameterNumberName":"U-component_of_WINDS"},"data":[0,0,0,0,0,0,0,0,0,0,0,0,0,0,0,0,0,0,0,0,0,0,0,0,0,0,0,0,0,0,0,0,0,0,0,0,0,0,0,0,0,0,0,0,0,0,0,0,0,0,0,0,0,0,0,0,0,0,-1.7697,-1.7697,0,-1.7713,-1.7713,-1.7713,-1.7676,-1.7675,-1.7673,-1.7672,-1.769,-1.7692,-1.7693,0,0,0,0,0,0,0,0,0,0,0,0,0,-1.7635,-1.7636,-1.7697,-1.7697,-1.7697,-1.7713,-1.7713,-1.7713,-1.7676,-1.7674,-1.7673,-1.7672,-1.7689,-1.7691,-1.7693,0,0,0,0,0,0,0,0,0,0,0,0,0,-1.7657,-1.7636,-1.7697,-1.768,-1.7679,-1.7713,-1.7713,-1.7713,-1.7676,-1.7674,-1.7673,-1.7671,-1.7689,-1.7691,-1.7693,-1.7744,0,0,-1.7701,-1.7702,0,0,0,0,0,0,0,0,-1.7656,-1.766,-1.7683,-1.7681,-1.768,-1.769,-1.7697,-1.7723,-1.7677,-1.7677,-1.7672,-1.767,-1.7692,-1.7694,-1.7701,-1.7745,-1.7745,-1.7701,-1.7702,-1.7703,-1.7704,0,0,0,0,0,0,0,-1.7655,-1.7659,-1.7703,-1.7683,-1.7681,-1.7673,-1.7674,-1.7702,-1.7694,-1.7677,-1.7674,-1.7677,-1.7691,-1.7698,-1.7701,-1.7746,-1.7701,-1.7703,-1.7704,-1.7705,-1.7831,-1.7833,0,0,0,0,0,0,-1.7655,-1.7658,-1.7702,-1.7703,-1.7663,-1.7675,-1.7676,-1.7689,-1.7694,-1.7693,-1.7678,-1.7675,-1.7695,-1.7698,-1.7701,-1.776,-1.7703,-1.7706,-1.7707,-1.7829,-1.7832,-1.7834,0,0,0,0,0,0,-1.7654,-1.7659,-1.7702,-1.768,-1.7685,-1.7678,-1.7692,-1.769,-1.7698,-1.7695,-1.7693,-1.7688,-1.7694,-1.7698,-1.7733,-1.776,-1.7707,-1.7709,-1.7827,-1.783,-1.7833,-1.7878,0,0,0,0,0,0,-1.7652,-1.7659,-1.7678,-1.768,-1.7686,-1.7733,-1.7694,-1.7692,-1.7702,-1.7698,-1.7703,-1.7702,-1.7693,-1.773,-1.7736,-1.7762,-1.7711,-1.7825,-1.7829,-1.7832,-1.7874,-1.7882,-1.7889,0,0,0,0,0,-1.765,-1.769,-1.7679,-1.7685,-1.7709,-1.7735,-1.7738,-1.7726,-1.7704,-1.7723,-1.7721,-1.7702,-1.7756,-1.7734,-1.774,-1.7768,-1.7823,-1.7827,-1.7832,-1.7871,-1.788,-1.7889,0,0,0,0,0,0,-1.7691,-1.769,-1.7678,-1.772,-1.7728,-1.7729,-1.7752,-1.7737,-1.7751,-1.7747,-1.7731,-1.7733,-1.7771,-1.7773,-1.7748,-1.7816,-1.7786,-1.7792,-1.7814,-1.7823,-1.783,-1.7828,-1.7713,0,0,0,0,0,-1.7706,-1.7726,-1.7724,-1.7762,-1.7766,-1.7759,-1.777,-1.7759,-1.7767,-1.777,-1.7771,-1.7779,-1.7798,-1.7811,-1.7828,-1.7874,-1.7875,-1.7897,-1.7904,-1.791,-1.7915,-1.7939,-1.7948,-1.7848,-1.7848,-1.7848,0,0,-1.7735,-1.7737,-1.7751,-1.777,-1.7775,-1.7797,-1.7762,-1.7786,-1.7802,-1.7774,-1.7807,-1.7808,-1.7816,-1.7857,-1.7875,-1.786,-1.7943,-1.7916,-1.792,-1.7922,-1.7944,-1.7954,-1.7962,-1.7851,-1.785,-1.785,0,0,-1.7799,-1.7803,-1.7834,-1.7839,-1.7847,-1.7842,-1.7849,-1.7852,-1.7852,-1.7885,-1.7863,-1.7883,-1.7916,-1.7922,-1.793,-1.7997,-1.7979,-1.8003,-1.8041,-1.8065,-1.8073,-1.808,-1.8102,-1.8111,-1.8008,-1.8008,-1.8008,0,-1.7834,-1.7866,-1.7852,-1.7878,-1.7887,-1.7862,-1.7894,-1.79,-1.7913,-1.792,-1.7902,-1.7943,-1.7947,-1.7989,-1.8005,-1.8012,-1.802,-1.8002,-1.8073,-1.8079,-1.8086,-1.8107,-1.8116,-1.8011,-1.801,-1.801,-1.801,0,-1.7909,-1.7931,-1.7955,-1.7968,-1.798,-1.8009,-1.7999,-1.8013,-1.8002,-1.7999,-1.8033,-1.8037,-1.8054,-1.8063,-1.8053,-1.8104,-1.8094,-1.8075,-1.8044,-1.8098,-1.8118,-1.8126,-1.8015,-1.8014,-1.8013,-1.8012,0,0,-1.7999,-1.8003,-1.8012,-1.8017,-1.8024,-1.8041,-1.8069,-1.8085,-1.8097,-1.8107,-1.8129,-1.8158,-1.814,-1.8149,-1.814,-1.8161,-1.8212,-1.8139,-1.8139,-1.8152,-1.8267,-1.828,-1.829,-1.8201,-1.8203,-1.8204,-1.8266,0,-1.8061,-1.8108,-1.8096,-1.8143,-1.8163,-1.814,-1.8164,-1.8171,-1.8168,-1.8185,-1.8183,-1.8203,-1.8179,-1.8184,-1.8203,-1.8202,-1.8235,-1.8197,-1.8222,-1.8223,-1.8219,-1.8301,-1.8315,-1.8373,-1.8274,-1.8275,-1.8276,0,-1.814,-1.8152,-1.8201,-1.8203,-1.8211,-1.8233,-1.8247,-1.8264,-1.8271,-1.8268,-1.8278,-1.8264,-1.8292,-1.8261,-1.8299,-1.8273,-1.8283,-1.8283,-1.8285,-1.8286,-1.8252,-1.8303,-1.8392,-1.84,-1.8289,-1.8288,-1.8287,0,-1.8199,-1.8228,-1.8261,-1.8266,-1.827,-1.8286,-1.8289,-1.8294,-1.8305,-1.8317,-1.8324,-1.8339,-1.8348,-1.8361,-1.8352,-1.833,-1.8391,-1.8359,-1.8388,-1.8389,-1.8401,-1.84,-1.8491,-1.8409,-1.8409,-1.8409,-1.8409,0,-1.8269,-1.83,-1.8287,-1.8307,-1.834,-1.8327,-1.836,-1.836,-1.8366,-1.8385,-1.8367,-1.8385,-1.8373,-1.8391,-1.8384,-1.8416,-1.842,-1.8418,-1.8416,-1.8419,-1.8419,-1.8425,-1.842,-1.8411,-1.8411,-1.841,-1.841,0,-1.8341,-1.8334,-1.8367,-1.8369,-1.837,-1.8394,-1.8395,-1.8414,-1.841,-1.8435,-1.844,-1.8435,-1.8455,-1.8448,-1.847,-1.8465,-1.8505,-1.8498,-1.8502,-1.85,-1.8529,-1.8526,-1.8626,-1.8638,-1.8549,-1.855,-1.8551,0,-1.8385,-1.8408,-1.8412,-1.8423,-1.8427,-1.8446,-1.8456,-1.8445,-1.8456,-1.8466,-1.8483,-1.8502,-1.8516,-1.8549,-1.8547,-1.8564,-1.8556,-1.859,-1.8559,-1.8561,-1.8555,-1.8554,-1.8555,-1.8596,-1.8597,-1.8598,-1.8599,0,-1.8465,-1.846,-1.8476,-1.849,-1.8503,-1.8514,-1.8523,-1.8534,-1.8523,-1.8537,-1.8557,-1.8567,-1.8589,-1.8608,-1.8622,-1.8625,-1.861,-1.8609,-1.8616,-1.8619,-1.862,-1.8619,-1.8518,-1.8606,-1.8606,-1.8605,-1.8605,-1.8604,-1.8523,-1.8542,-1.8547,-1.8565,-1.8571,-1.858,-1.8597,-1.8596,-1.8612,-1.8628,-1.8621,-1.8644,-1.8651,-1.8669,-1.8674,-1.8692,-1.8679,-1.869,-1.8692,-1.8695,-1.8698,-1.8618,-1.8695,-1.8695,-1.8694,-1.8694,-1.8694,0,-1.8601,-1.8603,-1.862,-1.8633,-1.8647,-1.8632,-1.8641,-1.8654,-1.8674,-1.8682,-1.8695,-1.8718,-1.8736,-1.8736,-1.8752,-1.8767,-1.876,-1.8771,-1.877,-1.877,-1.8709,-1.8701,-1.8776,-1.8776,-1.8776,-1.8776,-1.8776,-1.8776,-1.8643,-1.8673,-1.8669,-1.8702,-1.8705,-1.8726,-1.8733,-1.8741,-1.8747,-1.8773,-1.8788,-1.8787,-1.8792,-1.8808,-1.8824,-1.8823,-1.883,-1.8844,-1.884,-1.8783,-1.8775,-1.8767,-1.8759,-1.8845,-1.8845,-1.89,-1.89,-1.8901]},{"header":{"parameterUnit":"m.s-1","parameterCategory":1,"la1":30.2991,"la2":30.254,"lo1":-89.0895,"lo2":-89.0444,"dy":0.0017,"dx":0.0017,"nx":28,"ny":28,"refTime":"2025-11-18T03:00:00:Z","depth":0,"parameterNumber":3,"parameterNumberName":"V-component_of_WINDS"},"data":[0,0,0,0,0,0,0,0,0,0,0,0,0,0,0,0,0,0,0,0,0,0,0,0,0,0,0,0,0,0,0,0,0,0,0,0,0,0,0,0,0,0,0,0,0,0,0,0,0,0,0,0,0,0,0,0,0,0,1.029,1.0291,0,1.0424,1.0426,1.0427,1.0471,1.0471,1.047,1.047,1.0599,1.0602,1.0606,0,0,0,0,0,0,0,0,0,0,0,0,0,1.0064,1.0068,1.029,1.0291,1.0293,1.0424,1.0426,1.0428,1.0471,1.0471,1.047,1.0469,1.0597,1.0602,1.0607,0,0,0,0,0,0,0,0,0,0,0,0,0,1.0176,1.0069,1.0289,1.0331,1.0336,1.0424,1.0426,1.0428,1.0472,1.0471,1.047,1.0469,1.0596,1.0601,1.0607,1.0661,0,0,1.0625,1.0628,0,0,0,0,0,0,0,0,1.017,1.0184,1.0323,1.0328,1.0334,1.043,1.0393,1.0506,1.0472,1.042,1.047,1.0469,1.0543,1.0553,1.058,1.0667,1.0672,1.0626,1.063,1.0632,1.0634,0,0,0,0,0,0,0,1.0162,1.0179,1.0343,1.0325,1.0332,1.034,1.0356,1.0415,1.0484,1.0424,1.0428,1.0444,1.0545,1.0574,1.0583,1.0674,1.0626,1.0631,1.0635,1.0637,1.0813,1.0814,0,0,0,0,0,0,1.0148,1.0172,1.0338,1.0347,1.0248,1.0345,1.0362,1.04,1.0484,1.0496,1.0444,1.0445,1.0564,1.0576,1.0588,1.0658,1.0632,1.0638,1.0641,1.0812,1.0813,1.0815,0,0,0,0,0,0,1.0143,1.0163,1.0333,1.0261,1.0283,1.035,1.0392,1.0403,1.0432,1.0499,1.051,1.0461,1.0564,1.0579,1.0643,1.0663,1.064,1.0646,1.0811,1.0813,1.0814,1.0796,0,0,0,0,0,0,1.0137,1.0161,1.0183,1.0261,1.0287,1.0388,1.0394,1.0406,1.0443,1.0446,1.0518,1.0529,1.0564,1.0634,1.0649,1.067,1.065,1.0809,1.0812,1.0814,1.0795,1.0797,1.0799,0,0,0,0,0,1.0128,1.017,1.0184,1.0204,1.0317,1.0389,1.0404,1.0447,1.0444,1.0467,1.051,1.0526,1.0658,1.064,1.0658,1.0681,1.0808,1.0811,1.0813,1.0795,1.0797,1.0798,0,0,0,0,0,0,1.009,1.0181,1.0197,1.0266,1.032,1.0397,1.0426,1.0447,1.05,1.05,1.0548,1.0564,1.0625,1.0659,1.0638,1.0737,1.0734,1.074,1.0714,1.0716,1.0718,1.0708,1.0655,0,0,0,0,0,1.009,1.0144,1.022,1.0273,1.03,1.0358,1.0391,1.042,1.0477,1.0499,1.0546,1.0598,1.0652,1.0685,1.0738,1.08,1.0817,1.0824,1.0826,1.0827,1.0832,1.0869,1.0874,1.0823,1.0823,1.0823,0,0,1.0089,1.0146,1.0176,1.0267,1.0312,1.0365,1.0377,1.0432,1.0472,1.0506,1.0571,1.0608,1.0668,1.0733,1.0763,1.0763,1.085,1.083,1.083,1.0835,1.0872,1.0877,1.0881,1.0825,1.0824,1.0824,0,0,1.0116,1.0164,1.0216,1.0261,1.0331,1.037,1.0382,1.0456,1.0483,1.055,1.0577,1.0623,1.0713,1.0757,1.079,1.0836,1.0853,1.0851,1.0859,1.0895,1.0899,1.0903,1.092,1.0926,1.0855,1.0855,1.0855,0,1.0106,1.019,1.0238,1.0294,1.0332,1.037,1.0421,1.0462,1.0543,1.0568,1.0567,1.0684,1.0727,1.0802,1.0814,1.0839,1.0854,1.0843,1.0895,1.0899,1.0903,1.092,1.0927,1.0855,1.0855,1.0855,1.0855,0,1.0175,1.0233,1.0265,1.0348,1.039,1.0442,1.0497,1.0533,1.0558,1.0597,1.0664,1.0717,1.0783,1.0802,1.0825,1.0881,1.0879,1.0886,1.0883,1.0907,1.0924,1.0931,1.0854,1.0854,1.0854,1.0854,0,0,1.0181,1.0292,1.0303,1.0342,1.0422,1.0466,1.052,1.0587,1.0618,1.0672,1.0719,1.0795,1.0803,1.0841,1.0869,1.09,1.0935,1.0903,1.0905,1.0908,1.1001,1.0996,1.1003,1.0946,1.0948,1.0949,1.0996,0,1.022,1.0322,1.0367,1.0448,1.0502,1.0538,1.0585,1.0638,1.0676,1.0725,1.0765,1.082,1.0825,1.0848,1.0881,1.0924,1.0954,1.092,1.0989,1.0991,1.0974,1.1012,1.1007,1.105,1.1003,1.1004,1.1005,0,1.0278,1.0338,1.0425,1.0501,1.0526,1.0567,1.0634,1.0681,1.0741,1.0766,1.081,1.0838,1.0894,1.0887,1.0965,1.0942,1.0972,1.0997,1.1,1.1009,1.1,1.1023,1.1064,1.1071,1.1015,1.1015,1.1014,0,1.0276,1.0378,1.0444,1.0475,1.0565,1.0594,1.0632,1.0692,1.073,1.0786,1.0812,1.0872,1.0905,1.0951,1.0994,1.0984,1.1068,1.1064,1.109,1.1089,1.1107,1.1105,1.1154,1.1123,1.1123,1.1123,1.1123,0,1.0316,1.0368,1.0445,1.0485,1.0545,1.0595,1.0651,1.0692,1.0745,1.0793,1.0826,1.0869,1.0923,1.0973,1.1006,1.1066,1.108,1.1101,1.111,1.1099,1.1097,1.1121,1.1119,1.1125,1.1125,1.1124,1.1124,0,1.0324,1.0377,1.0452,1.0532,1.0553,1.0594,1.0661,1.0701,1.074,1.08,1.0817,1.0878,1.0939,1.0986,1.1063,1.1086,1.115,1.1158,1.1131,1.1136,1.1159,1.1157,1.1226,1.1239,1.1198,1.1198,1.1199,0,1.0346,1.0388,1.0474,1.051,1.0549,1.0606,1.0646,1.0697,1.0737,1.081,1.0841,1.0905,1.0959,1.1053,1.1103,1.1162,1.1173,1.1193,1.1182,1.1171,1.1175,1.1173,1.1178,1.1195,1.1195,1.1195,1.1195,0,1.038,1.0406,1.0464,1.0532,1.058,1.0635,1.0691,1.0718,1.0778,1.0821,1.0885,1.0927,1.1009,1.1071,1.1136,1.1173,1.1194,1.1199,1.1208,1.1198,1.1182,1.1193,1.1136,1.1197,1.1197,1.1197,1.1196,1.1196,1.0398,1.0437,1.0505,1.0569,1.0617,1.0669,1.0711,1.0758,1.0813,1.0886,1.0912,1.0978,1.1038,1.1128,1.1166,1.1217,1.1218,1.1231,1.1234,1.1237,1.1237,1.1173,1.1228,1.1228,1.1228,1.1228,1.1228,0,1.0435,1.0481,1.054,1.0619,1.0669,1.0688,1.0751,1.0791,1.085,1.0906,1.096,1.1034,1.1095,1.115,1.1214,1.1244,1.1256,1.1259,1.1258,1.1266,1.1232,1.1218,1.1249,1.1249,1.1249,1.1249,1.1249,1.1249,1.0461,1.053,1.0564,1.0656,1.0701,1.077,1.0804,1.0851,1.0897,1.0979,1.1032,1.1069,1.1124,1.1193,1.1249,1.1264,1.1286,1.1288,1.1304,1.1271,1.1268,1.1266,1.1254,1.1292,1.1292,1.1335,1.1336,1.1336]}]]